Key West NAF, FL

3:29 PM EDT on May 28, 2017 (GMT -0400)
Key West Naval Air Station

Weather History for KNQX - March, 2012

Change the Weather History Date:

Thursday, March 29, 2012

  Actual Average Record
Temperature  
Mean Temperature 76 °F -  
Max Temperature 80 °F 80 °F 86 °F (2011)
Min Temperature 73 °F 71 °F 60 °F (1958)
Cooling Degree Days 12    
Growing Degree Days 26 (Base 50)    
Moisture  
Dew Point 64 °F    
Average Humidity 62    
Maximum Humidity 68    
Minimum Humidity 59    
Precipitation  
Precipitation 0.00 in - - ()
Sea Level Pressure  
Sea Level Pressure 30.02 in    
Wind  
Wind Speed 13 mph (ESE)    
Max Wind Speed 15 mph    
Max Gust Speed -    
Visibility 10 miles    
Events      
Averages and records for this station are not official NWS values.
T = Trace of Precipitation, MM = Missing Value Source: NWS Daily Summary

Daily Weather History Graph

Daily Weather History Graph

Search for Another Location

Airport or City:

Trip Planner

Search our weather history database for the weather conditions in past years. The results will help you decide how hot, cold, wet, or windy it might be!

Date:

Astronomy

Mar. 29, 2012 Rise Set
Actual Time 7:21 AM EDT 7:41 PM EDT
Civil Twilight 6:58 AM EDT 8:04 PM EDT
Nautical Twilight 6:31 AM EDT 8:31 PM EDT
Astronomical Twilight 6:04 AM EDT 8:58 PM EDT
Moon 11:59 AM EDT (3/29) 1:01 AM EDT (3/29)
Length of Visible Light 13h 06m
Length of Day
12h 20m
Waxing Crescent, 39% of the Moon is Illuminated
Mar 29
Waxing Crescent
Mar 30
First Quarter
Apr 6
Full
Apr 13
Last Quarter
Apr 21
New

Hourly Weather History & Observations

Time (EDT) Temp. Heat Index Dew Point Humidity Pressure Visibility Wind Dir Wind Speed Gust Speed Precip Events Conditions
12:53 AM - - - N/A% 30.06 in 10.0 mi East 12.7 mph - N/A   Overcast
1:32 AM - - - N/A% 30.05 in 10.0 mi ESE 15.0 mph - N/A   Overcast
1:53 AM - - - N/A% 30.04 in 10.0 mi ESE 13.8 mph - N/A   Overcast
2:20 AM - - - N/A% 30.03 in 10.0 mi ESE 13.8 mph - N/A   Scattered Clouds
2:53 AM - - - N/A% 30.02 in 10.0 mi ESE 12.7 mph - N/A   Partly Cloudy
3:53 AM - - - N/A% 30.00 in 10.0 mi ESE 13.8 mph - N/A   Partly Cloudy
4:53 AM - - - N/A% 30.00 in 10.0 mi ESE 12.7 mph - N/A   Clear
5:00 AM - - - N/A% - - North - - N/A   Unknown
5:53 AM 73.4 °F - 62.1 °F 68% 30.00 in 10.0 mi ESE 12.7 mph - N/A   Partly Cloudy
6:53 AM 75.2 °F - 62.1 °F 64% 30.02 in 10.0 mi ESE 11.5 mph - N/A   Scattered Clouds
7:53 AM 77.0 °F - 63.0 °F 62% 30.03 in 10.0 mi East 9.2 mph - N/A   Scattered Clouds
8:53 AM 77.0 °F - 63.0 °F 62% 30.04 in 10.0 mi ESE 10.4 mph - N/A   Scattered Clouds
9:53 AM 77.0 °F - 64.0 °F 64% 30.05 in 10.0 mi ESE 10.4 mph - N/A   Scattered Clouds
10:53 AM 78.8 °F - 64.9 °F 62% 30.06 in 10.0 mi ESE 11.5 mph - N/A   Scattered Clouds
11:53 AM 78.8 °F - 64.9 °F 62% 30.07 in 10.0 mi ESE 11.5 mph - N/A   Scattered Clouds
12:53 PM 80.6 °F 82.4 °F 64.9 °F 59% 30.05 in 10.0 mi East 12.7 mph - N/A   Scattered Clouds
1:53 PM 80.6 °F 82.4 °F 64.9 °F 59% 30.03 in 10.0 mi East 12.7 mph - N/A   Scattered Clouds
2:53 PM 80.6 °F 82.7 °F 66.0 °F 61% 30.01 in 10.0 mi East 13.8 mph - N/A   Partly Cloudy
3:53 PM 80.6 °F 82.4 °F 64.9 °F 59% 29.99 in 10.0 mi East 15.0 mph - N/A   Scattered Clouds
4:53 PM 80.6 °F 82.4 °F 64.9 °F 59% 29.98 in 10.0 mi East 12.7 mph - N/A   Scattered Clouds
5:53 PM 80.6 °F 82.7 °F 66.0 °F 61% 29.98 in 10.0 mi East 13.8 mph - N/A   Scattered Clouds
6:53 PM 78.8 °F - 64.9 °F 62% 29.99 in 10.0 mi East 12.7 mph - N/A   Scattered Clouds
7:53 PM 77.0 °F - 64.9 °F 66% 30.00 in 10.0 mi East 11.5 mph - N/A   Scattered Clouds
8:53 PM 77.0 °F - 63.0 °F 62% 30.01 in 10.0 mi East 11.5 mph - N/A   Partly Cloudy
9:53 PM 75.2 °F - 63.0 °F 66% 30.02 in 10.0 mi East 11.5 mph - N/A   Partly Cloudy
10:53 PM - - - N/A% 30.03 in 10.0 mi East 11.5 mph - N/A   Clear
11:53 PM - - - N/A% 30.03 in 10.0 mi ESE 12.7 mph - N/A   Clear